[[{"header":{"parameterUnit":"m.s-1","parameterCategory":1,"la1":30.2991,"la2":30.254,"lo1":-89.0895,"lo2":-89.0444,"dy":0.0017,"dx":0.0017,"nx":28,"ny":28,"refTime":"2023-10-15T03:00:00:Z","depth":0,"parameterNumber":2,"parameterNumberName":"U-component_of_WINDS"},"data":[0,0,0,0,0,0,0,0,0,0,0,0,0,0,0,0,0,0,0,0,0,0,0,0,0,0,0,0,0,0,0,0,0,0,0,0,0,0,0,0,0,0,0,0,0,0,0,0,0,0,0,0,0,0,0,0,0,0,2.7858,2.7859,0,2.7889,2.7889,2.789,2.7855,2.7854,2.7853,2.7851,2.7882,2.7884,2.7886,0,0,0,0,0,0,0,0,0,0,0,0,0,2.777,2.7772,2.7858,2.7859,2.7859,2.7889,2.7889,2.789,2.7855,2.7854,2.7852,2.7851,2.7881,2.7884,2.7886,0,0,0,0,0,0,0,0,0,0,0,0,0,2.7805,2.7772,2.7858,2.7845,2.7845,2.7889,2.7889,2.789,2.7856,2.7854,2.7852,2.785,2.788,2.7883,2.7886,2.7945,0,0,2.7896,2.7897,0,0,0,0,0,0,0,0,2.7803,2.7809,2.7847,2.7846,2.7846,2.7866,2.787,2.7908,2.7856,2.7851,2.7851,2.7849,2.7878,2.7881,2.7891,2.7946,2.7947,2.7896,2.7898,2.7899,2.79,0,0,0,0,0,0,0,2.7801,2.7807,2.787,2.7848,2.7847,2.7838,2.7841,2.7877,2.7875,2.7852,2.7849,2.7853,2.7877,2.7889,2.7892,2.7948,2.7896,2.7899,2.7901,2.7902,2.8054,2.8056,0,0,0,0,0,0,2.78,2.7805,2.7869,2.7871,2.7819,2.7842,2.7845,2.7862,2.7875,2.7875,2.7855,2.7852,2.7884,2.7888,2.7893,2.7963,2.7899,2.7902,2.7904,2.8051,2.8054,2.8056,0,0,0,0,0,0,2.7798,2.7806,2.7868,2.7838,2.7845,2.7845,2.7864,2.7863,2.7874,2.7878,2.7877,2.7867,2.7883,2.7889,2.7932,2.7963,2.7903,2.7906,2.8049,2.8052,2.8055,2.8102,0,0,0,0,0,0,2.7796,2.7806,2.7827,2.7838,2.7847,2.7907,2.7866,2.7865,2.788,2.7876,2.7888,2.7888,2.7882,2.7928,2.7936,2.7966,2.7909,2.8046,2.805,2.8054,2.8098,2.8107,2.8115,0,0,0,0,0,2.7793,2.7839,2.7829,2.7837,2.7874,2.7909,2.7914,2.7905,2.7882,2.7904,2.7907,2.7888,2.7959,2.7933,2.7941,2.7973,2.8044,2.8049,2.8054,2.8094,2.8105,2.8114,0,0,0,0,0,0,2.783,2.784,2.7829,2.788,2.7894,2.7903,2.793,2.7917,2.7937,2.7933,2.7921,2.7925,2.7972,2.7977,2.7948,2.8031,2.7998,2.8005,2.8026,2.8036,2.8044,2.8042,2.7911,0,0,0,0,0,2.7845,2.7872,2.7879,2.7924,2.7931,2.793,2.7945,2.7938,2.7952,2.7957,2.7963,2.7977,2.8003,2.802,2.8043,2.8099,2.8102,2.8126,2.8134,2.814,2.8146,2.8178,2.8188,2.8073,2.8073,2.8073,0,0,2.7874,2.7883,2.7901,2.7931,2.7942,2.7971,2.7935,2.7967,2.7989,2.7962,2.8004,2.8009,2.8024,2.8075,2.8097,2.8081,2.8179,2.8147,2.8152,2.8154,2.8184,2.8195,2.8205,2.8076,2.8075,2.8075,0,0,2.7943,2.7952,2.7991,2.8003,2.8019,2.8018,2.8027,2.8039,2.8042,2.8084,2.8065,2.8091,2.8135,2.8147,2.8159,2.8236,2.8219,2.8244,2.8286,2.8317,2.8326,2.8334,2.8362,2.8372,2.825,2.825,2.825,0,2.7978,2.8021,2.8012,2.8047,2.8061,2.8039,2.8079,2.809,2.8113,2.8124,2.8105,2.8161,2.817,2.8224,2.8243,2.8253,2.8264,2.8242,2.8326,2.8334,2.8341,2.8367,2.8378,2.8253,2.8252,2.8252,2.8252,0,2.8063,2.8094,2.8123,2.8147,2.8165,2.8201,2.8199,2.8218,2.821,2.8211,2.8256,2.8266,2.8292,2.8304,2.8296,2.8358,2.8347,2.8327,2.8293,2.8355,2.838,2.839,2.8257,2.8256,2.8255,2.8254,0,0,2.8155,2.8175,2.8186,2.8198,2.8215,2.8239,2.8275,2.8301,2.8318,2.8336,2.8366,2.8405,2.8388,2.8402,2.8395,2.8422,2.8483,2.8399,2.8399,2.8415,2.8553,2.8568,2.8579,2.8473,2.8475,2.8476,2.8552,0,2.8224,2.8288,2.8282,2.8342,2.8371,2.8352,2.8384,2.8398,2.8401,2.8426,2.8429,2.8457,2.8432,2.844,2.8466,2.847,2.8511,2.8465,2.8502,2.8503,2.8498,2.8592,2.8607,2.8678,2.8561,2.8563,2.8564,0,2.8314,2.8335,2.8398,2.8413,2.8425,2.8454,2.8479,2.8503,2.8519,2.852,2.8537,2.8526,2.8563,2.8529,2.8581,2.855,2.8565,2.857,2.8572,2.8575,2.8537,2.8598,2.87,2.8711,2.8579,2.8578,2.8577,0,2.8375,2.842,2.8464,2.8474,2.8492,2.8513,2.8522,2.8537,2.8554,2.8575,2.8586,2.8612,2.8626,2.8647,2.8644,2.8619,2.8697,2.8662,2.8698,2.8699,2.8715,2.8714,2.8821,2.8725,2.8725,2.8725,2.8724,0,2.8453,2.8493,2.8492,2.8519,2.8563,2.8557,2.8601,2.8607,2.8621,2.8649,2.8634,2.8661,2.8656,2.8683,2.8681,2.8725,2.8731,2.8733,2.8732,2.8734,2.8734,2.8743,2.8738,2.8727,2.8727,2.8726,2.8726,0,2.8528,2.8529,2.8576,2.8591,2.8595,2.8627,2.864,2.8666,2.8668,2.8704,2.8712,2.8716,2.8748,2.8747,2.8783,2.8781,2.8836,2.8829,2.883,2.8829,2.8865,2.8862,2.8982,2.8998,2.8891,2.8892,2.8893,0,2.8578,2.8608,2.8626,2.8645,2.8655,2.8684,2.8702,2.8698,2.8717,2.874,2.8763,2.8793,2.8817,2.8868,2.8875,2.8902,2.8896,2.8936,2.89,2.8902,2.8897,2.8895,2.8899,2.8943,2.8944,2.8945,2.8946,0,2.8667,2.8666,2.8692,2.8719,2.8741,2.8762,2.8781,2.8797,2.8795,2.8817,2.8849,2.8868,2.8905,2.8936,2.8963,2.8972,2.8959,2.8958,2.8968,2.897,2.897,2.8971,2.885,2.8955,2.8954,2.8953,2.8953,2.8953,2.8731,2.8757,2.8775,2.8805,2.8819,2.8838,2.8864,2.887,2.8897,2.8927,2.8923,2.896,2.8978,2.9013,2.9025,2.9054,2.9039,2.9053,2.9057,2.9061,2.9065,2.8966,2.9058,2.9058,2.9058,2.9058,2.9058,0,2.8819,2.883,2.8857,2.8885,2.891,2.8896,2.8918,2.8938,2.8971,2.8989,2.9013,2.9051,2.9082,2.9091,2.912,2.9142,2.9137,2.915,2.9148,2.9151,2.9076,2.9064,2.9153,2.9153,2.9153,2.9153,2.9153,2.9153,2.8867,2.8912,2.8914,2.8966,2.8977,2.9013,2.9026,2.9044,2.9058,2.9102,2.9127,2.9133,2.9148,2.9179,2.9207,2.9209,2.922,2.9236,2.9235,2.9165,2.9156,2.9146,2.9136,2.9238,2.9238,2.9308,2.9309,2.9309]},{"header":{"parameterUnit":"m.s-1","parameterCategory":1,"la1":30.2991,"la2":30.254,"lo1":-89.0895,"lo2":-89.0444,"dy":0.0017,"dx":0.0017,"nx":28,"ny":28,"refTime":"2023-10-15T03:00:00:Z","depth":0,"parameterNumber":3,"parameterNumberName":"V-component_of_WINDS"},"data":[0,0,0,0,0,0,0,0,0,0,0,0,0,0,0,0,0,0,0,0,0,0,0,0,0,0,0,0,0,0,0,0,0,0,0,0,0,0,0,0,0,0,0,0,0,0,0,0,0,0,0,0,0,0,0,0,0,0,-8.5879,-8.5881,0,-8.6045,-8.6047,-8.6049,-8.6003,-8.6,-8.5997,-8.5994,-8.6156,-8.6163,-8.617,0,0,0,0,0,0,0,0,0,0,0,0,0,-8.5516,-8.5522,-8.5879,-8.5881,-8.5883,-8.6045,-8.6047,-8.6049,-8.6004,-8.6,-8.5996,-8.5992,-8.6153,-8.6162,-8.6171,0,0,0,0,0,0,0,0,0,0,0,0,0,-8.5676,-8.5525,-8.5878,-8.588,-8.5882,-8.6044,-8.6047,-8.605,-8.6005,-8.6,-8.5995,-8.599,-8.615,-8.6161,-8.6172,-8.634,0,0,-8.6206,-8.6211,0,0,0,0,0,0,0,0,-8.5667,-8.569,-8.5878,-8.588,-8.5883,-8.5999,-8.5978,-8.6147,-8.6006,-8.5958,-8.5994,-8.5988,-8.6107,-8.6121,-8.6163,-8.6348,-8.6355,-8.6207,-8.6214,-8.6218,-8.6222,0,0,0,0,0,0,0,-8.5656,-8.5682,-8.5944,-8.588,-8.5884,-8.587,-8.5888,-8.601,-8.6058,-8.5962,-8.5959,-8.598,-8.6107,-8.6152,-8.6166,-8.6357,-8.6207,-8.6216,-8.6223,-8.6228,-8.6689,-8.6694,0,0,0,0,0,0,-8.5644,-8.5673,-8.5939,-8.5949,-8.5761,-8.5881,-8.59,-8.5966,-8.6057,-8.6066,-8.5984,-8.5977,-8.6136,-8.6154,-8.6172,-8.6376,-8.6218,-8.6229,-8.6235,-8.6683,-8.669,-8.6696,0,0,0,0,0,0,-8.5637,-8.5668,-8.5932,-8.5811,-8.5843,-8.5893,-8.5967,-8.5972,-8.6017,-8.6073,-8.6081,-8.6022,-8.6133,-8.6156,-8.63,-8.6381,-8.6234,-8.6244,-8.6677,-8.6685,-8.6693,-8.6784,0,0,0,0,0,0,-8.5627,-8.5666,-8.5732,-8.5813,-8.585,-8.6059,-8.5972,-8.5979,-8.6038,-8.603,-8.6111,-8.6119,-8.6131,-8.6283,-8.6311,-8.6393,-8.6253,-8.667,-8.6681,-8.669,-8.6774,-8.6794,-8.6812,0,0,0,0,0,-8.5614,-8.5749,-8.5736,-8.5768,-8.5934,-8.6064,-8.6085,-8.6098,-8.6045,-8.611,-8.6146,-8.6117,-8.6368,-8.6298,-8.6329,-8.6416,-8.6665,-8.6677,-8.669,-8.6765,-8.679,-8.6812,0,0,0,0,0,0,-8.5673,-8.5759,-8.5746,-8.5911,-8.5981,-8.6056,-8.614,-8.6124,-8.6208,-8.6197,-8.6206,-8.6225,-8.6372,-8.6408,-8.6329,-8.6584,-8.6508,-8.6527,-8.6555,-8.6579,-8.6598,-8.6586,-8.6262,0,0,0,0,0,-8.5706,-8.5807,-8.5876,-8.6015,-8.6052,-8.609,-8.6147,-8.6151,-8.6222,-8.6251,-8.6297,-8.6366,-8.646,-8.6521,-8.6611,-8.6779,-8.6795,-8.6854,-8.6873,-8.6888,-8.6905,-8.6997,-8.7023,-8.6737,-8.6737,-8.6737,0,0,-8.5774,-8.5834,-8.5896,-8.6029,-8.6084,-8.6186,-8.6115,-8.6226,-8.6302,-8.6267,-8.6406,-8.6443,-8.6519,-8.6676,-8.6747,-8.6711,-8.6987,-8.6904,-8.6916,-8.6924,-8.7012,-8.7039,-8.7063,-8.6746,-8.6744,-8.6743,0,0,-8.5951,-8.6006,-8.6129,-8.6187,-8.6271,-8.6296,-8.6326,-8.6404,-8.6428,-8.6569,-8.6545,-8.6634,-8.6796,-8.6852,-8.6902,-8.7102,-8.7078,-8.713,-8.7229,-8.7319,-8.7341,-8.7361,-8.7433,-8.7459,-8.7146,-8.7147,-8.7147,0,-8.6024,-8.618,-8.6194,-8.6309,-8.6367,-8.6344,-8.6468,-8.6521,-8.663,-8.667,-8.6628,-8.6832,-8.6882,-8.7052,-8.7101,-8.7142,-8.7175,-8.7121,-8.7338,-8.7358,-8.7377,-8.7445,-8.7472,-8.7153,-8.7152,-8.7151,-8.7151,0,-8.6266,-8.6374,-8.6463,-8.6573,-8.6641,-8.676,-8.679,-8.6857,-8.6855,-8.6884,-8.7027,-8.7087,-8.7189,-8.7229,-8.7227,-8.7399,-8.7374,-8.7335,-8.7259,-8.741,-8.7474,-8.75,-8.7161,-8.7159,-8.7157,-8.7156,0,0,-8.6483,-8.6601,-8.6633,-8.6683,-8.6776,-8.6859,-8.6976,-8.7079,-8.7136,-8.7212,-8.7309,-8.7448,-8.7413,-8.747,-8.7474,-8.7553,-8.7708,-8.7504,-8.7506,-8.754,-8.7901,-8.793,-8.796,-8.7693,-8.7698,-8.7702,-8.7895,0,-8.6668,-8.6878,-8.6894,-8.7082,-8.7182,-8.7162,-8.7264,-8.7331,-8.7361,-8.7448,-8.748,-8.7579,-8.7525,-8.756,-8.7637,-8.7673,-8.778,-8.7659,-8.7782,-8.7786,-8.7764,-8.7994,-8.8025,-8.8204,-8.792,-8.7924,-8.7927,0,-8.6912,-8.6999,-8.7198,-8.7278,-8.7321,-8.7412,-8.7508,-8.7593,-8.7668,-8.7684,-8.7749,-8.7742,-8.7861,-8.7781,-8.7943,-8.786,-8.7911,-8.7937,-8.7944,-8.7956,-8.7866,-8.8012,-8.8261,-8.8288,-8.7967,-8.7964,-8.7961,0,-8.7052,-8.7218,-8.7359,-8.7402,-8.7499,-8.7564,-8.7606,-8.7677,-8.7738,-8.7821,-8.786,-8.7955,-8.8007,-8.8079,-8.8098,-8.8038,-8.826,-8.8181,-8.8275,-8.8275,-8.8322,-8.8319,-8.8584,-8.8356,-8.8355,-8.8355,-8.8354,0,-8.7257,-8.7379,-8.7423,-8.751,-8.7646,-8.7663,-8.7796,-8.7835,-8.7898,-8.799,-8.7977,-8.8063,-8.8083,-8.8172,-8.8187,-8.832,-8.8343,-8.8358,-8.836,-8.836,-8.8358,-8.8393,-8.8381,-8.8362,-8.836,-8.8359,-8.8358,0,-8.7435,-8.747,-8.7622,-8.7703,-8.7726,-8.7823,-8.789,-8.7972,-8.8001,-8.8118,-8.8146,-8.8191,-8.8296,-8.8322,-8.8446,-8.8456,-8.8613,-8.8603,-8.8589,-8.8588,-8.8681,-8.8672,-8.8977,-8.9018,-8.8763,-8.8765,-8.8768,0,-8.7564,-8.7658,-8.775,-8.7812,-8.7859,-8.7959,-8.8023,-8.8043,-8.8109,-8.8202,-8.8273,-8.8377,-8.8461,-8.8629,-8.8671,-8.8766,-8.8759,-8.8859,-8.8773,-8.8769,-8.876,-8.8755,-8.8764,-8.8875,-8.8878,-8.888,-8.8882,0,-8.7789,-8.7802,-8.7895,-8.7996,-8.8073,-8.8152,-8.8227,-8.8278,-8.8308,-8.8383,-8.8492,-8.8558,-8.8686,-8.8789,-8.8885,-8.8926,-8.8909,-8.891,-8.8936,-8.8936,-8.8924,-8.8932,-8.8634,-8.8902,-8.89,-8.8899,-8.8898,-8.8897,-8.7947,-8.803,-8.8108,-8.8213,-8.8273,-8.8344,-8.8426,-8.8467,-8.8559,-8.8667,-8.8673,-8.8791,-8.8863,-8.8991,-8.9038,-8.9129,-8.9098,-8.9137,-8.9147,-8.9156,-8.9164,-8.891,-8.9146,-8.9146,-8.9145,-8.9145,-8.9145,0,-8.8171,-8.8221,-8.8318,-8.8425,-8.8508,-8.8488,-8.8571,-8.864,-8.8745,-8.8816,-8.89,-8.9025,-8.9125,-8.9176,-8.9275,-8.9338,-8.9333,-8.9364,-8.9359,-8.9369,-8.9186,-8.9153,-8.9366,-8.9366,-8.9366,-8.9366,-8.9366,-8.9366,-8.8298,-8.8438,-8.8461,-8.863,-8.8678,-8.8797,-8.8846,-8.8911,-8.8968,-8.9109,-8.9194,-8.9227,-8.929,-8.9393,-8.9484,-8.9496,-8.9533,-8.9567,-8.9575,-8.9404,-8.9381,-8.936,-8.9329,-8.9575,-8.9576,-8.975,-8.9752,-8.9753]}]]